Data No, UTC Date,UTC Time,Latitude,Longitude,Course(deg),Temp(degC),Sal(psu)
710,2020/8/7,11:49,42-36.78N,141-36.97E,207,21.166,31.7835
711,2020/8/7,11:50,42-36.53N,141-36.80E,203,21.248,31.7899
712,2020/8/7,11:51,42-36.24N,141-36.73E,191,21.217,31.8729
713,2020/8/7,11:52,42-35.98N,141-36.67E,189,21.225,31.9328
714,2020/8/7,11:53,42-35.73N,141-36.61E,189,21.237,32.0329
715,2020/8/7,11:54,42-35.45N,141-36.56E,186,21.241,32.0314
716,2020/8/7,11:55,42-35.16N,141-36.53E,184,21.243,32.0487
717,2020/8/7,11:56,42-34.87N,141-36.50E,183,21.19,32.0753
718,2020/8/7,11:57,42-34.58N,141-36.48E,183,21.143,32.1034
719,2020/8/7,11:58,42-34.25N,141-36.45E,184,21.076,32.1301
720,2020/8/7,11:59,42-33.96N,141-36.41E,185,20.988,32.1536
721,2020/8/7,12:00,42-33.70N,141-36.38E,185,20.891,32.2016
722,2020/8/7,12:01,42-33.38N,141-36.33E,187,20.811,32.2612
723,2020/8/7,12:02,42-33.09N,141-36.27E,189,20.746,32.3392
724,2020/8/7,12:03,42-32.80N,141-36.20E,190,20.7,32.4069
725,2020/8/7,12:04,42-32.52N,141-36.13E,190,20.686,32.4672
726,2020/8/7,12:05,42-32.23N,141-36.06E,190,20.707,32.5101
727,2020/8/7,12:06,42-31.94N,141-35.99E,190,20.689,32.5362
728,2020/8/7,12:07,42-31.66N,141-35.92E,190,20.498,32.5441
729,2020/8/7,12:08,42-31.38N,141-35.85E,189,20.067,32.5583
730,2020/8/7,12:09,42-31.10N,141-35.78E,189,20.004,32.6973
731,2020/8/7,12:10,42-30.83N,141-35.72E,189,19.968,32.8063
732,2020/8/7,12:11,42-30.55N,141-35.66E,189,19.948,32.845
733,2020/8/7,12:12,42-30.27N,141-35.62E,186,19.91,32.8811
734,2020/8/7,12:13,42-29.98N,141-35.58E,185,19.888,32.8936
735,2020/8/7,12:14,42-29.70N,141-35.55E,184,19.875,32.8994
736,2020/8/7,12:15,42-29.41N,141-35.52E,183,19.855,32.9061
737,2020/8/7,12:16,42-29.12N,141-35.50E,183,19.823,32.9075
738,2020/8/7,12:17,42-28.83N,141-35.49E,180,19.803,32.9106
739,2020/8/7,12:18,42-28.54N,141-35.49E,179,19.777,32.9142
740,2020/8/7,12:19,42-28.25N,141-35.50E,179,19.729,32.9191
741,2020/8/7,12:20,42-27.96N,141-35.51E,178,19.678,32.9236
742,2020/8/7,12:21,42-27.67N,141-35.52E,178,19.625,32.9279
743,2020/8/7,12:22,42-27.38N,141-35.53E,178,19.586,32.93
744,2020/8/7,12:23,42-27.09N,141-35.54E,179,19.534,32.9348
745,2020/8/7,12:24,42-26.83N,141-35.55E,179,19.509,32.9387
746,2020/8/7,12:25,42-26.55N,141-35.55E,179,19.471,32.9412
747,2020/8/7,12:26,42-26.23N,141-35.56E,179,19.432,32.9484
748,2020/8/7,12:27,42-25.93N,141-35.56E,179,19.395,32.9547
749,2020/8/7,12:28,42-25.64N,141-35.57E,179,19.367,32.9622
750,2020/8/7,12:29,42-25.35N,141-35.57E,179,19.352,32.9716
751,2020/8/7,12:30,42-25.07N,141-35.58E,179,19.348,32.9801
752,2020/8/7,12:31,42-24.78N,141-35.58E,179,19.286,32.9912
753,2020/8/7,12:32,42-24.50N,141-35.59E,179,19.227,32.9939
754,2020/8/7,12:33,42-24.21N,141-35.59E,179,19.12,32.9979
755,2020/8/7,12:34,42-23.96N,141-35.60E,180,19.026,32.9993
756,2020/8/7,12:35,42-23.68N,141-35.60E,179,18.955,33.0131
757,2020/8/7,12:36,42-23.39N,141-35.60E,179,18.828,33.0261
758,2020/8/7,12:37,42-23.11N,141-35.61E,180,18.779,33.0443
759,2020/8/7,12:38,42-22.82N,141-35.61E,180,18.866,33.0601
760,2020/8/7,12:39,42-22.53N,141-35.61E,179,18.965,33.0788
761,2020/8/7,12:40,42-22.25N,141-35.61E,180,19.064,33.0912
762,2020/8/7,12:41,42-21.96N,141-35.61E,180,19.138,33.097
763,2020/8/7,12:42,42-21.69N,141-35.61E,180,19.14,33.1001
764,2020/8/7,12:43,42-21.40N,141-35.61E,180,19.168,33.1014
765,2020/8/7,12:44,42-21.11N,141-35.61E,179,19.172,33.1064
766,2020/8/7,12:45,42-20.83N,141-35.61E,180,19.147,33.1112
767,2020/8/7,12:46,42-20.54N,141-35.61E,180,19.166,33.1099
768,2020/8/7,12:47,42-20.26N,141-35.61E,180,19.136,33.1138
769,2020/8/7,12:48,42-19.98N,141-35.61E,180,19.144,33.1167
770,2020/8/7,12:49,42-19.69N,141-35.61E,179,19.101,33.1212
771,2020/8/7,12:50,42-19.40N,141-35.61E,180,18.997,33.1232
772,2020/8/7,12:51,42-19.11N,141-35.61E,179,18.977,33.1268
773,2020/8/7,12:52,42-18.83N,141-35.62E,179,18.941,33.1311
774,2020/8/7,12:53,42-18.54N,141-35.62E,179,18.993,33.1294
775,2020/8/7,12:54,42-18.25N,141-35.62E,179,19.013,33.1329
776,2020/8/7,12:55,42-17.97N,141-35.63E,180,18.996,33.1304
777,2020/8/7,12:56,42-17.67N,141-35.63E,179,19.006,33.1286
778,2020/8/7,12:57,42-17.39N,141-35.63E,179,19.006,33.135
779,2020/8/7,12:58,42-17.10N,141-35.64E,179,18.974,33.1357
780,2020/8/7,12:59,42-16.81N,141-35.64E,179,18.924,33.1358
781,2020/8/7,13:00,42-16.52N,141-35.65E,179,18.893,33.137
782,2020/8/7,13:01,42-16.23N,141-35.65E,179,18.871,33.1449
783,2020/8/7,13:02,42-15.95N,141-35.66E,179,18.826,33.1483
784,2020/8/7,13:03,42-15.66N,141-35.66E,179,18.837,33.1408
785,2020/8/7,13:04,42-15.36N,141-35.66E,180,18.837,33.1471
786,2020/8/7,13:05,42-15.08N,141-35.67E,179,18.832,33.1538
787,2020/8/7,13:06,42-14.78N,141-35.67E,179,18.844,33.1552
788,2020/8/7,13:07,42-14.50N,141-35.67E,180,18.862,33.1529
789,2020/8/7,13:08,42-14.21N,141-35.68E,179,18.899,33.1528
790,2020/8/7,13:09,42-13.91N,141-35.68E,178,18.872,33.1534
791,2020/8/7,13:10,42-13.63N,141-35.69E,179,18.873,33.1516
792,2020/8/7,13:11,42-13.33N,141-35.69E,180,18.86,33.1473
793,2020/8/7,13:12,42-13.04N,141-35.69E,180,18.817,33.143
794,2020/8/7,13:13,42-12.72N,141-35.70E,179,18.771,33.1394
795,2020/8/7,13:14,42-12.41N,141-35.71E,179,18.787,33.1289
796,2020/8/7,13:15,42-12.12N,141-35.71E,179,18.761,33.1352
797,2020/8/7,13:16,42-11.82N,141-35.72E,179,18.706,33.1339
798,2020/8/7,13:17,42-11.53N,141-35.73E,178,18.615,33.1329
799,2020/8/7,13:18,42-11.24N,141-35.74E,179,18.585,33.1326
800,2020/8/7,13:19,42-10.98N,141-35.73E,179,18.583,33.1216
801,2020/8/7,13:20,42-10.69N,141-35.73E,179,18.515,33.1307
802,2020/8/7,13:21,42-10.39N,141-35.74E,178,18.526,33.1263
803,2020/8/7,13:22,42-10.10N,141-35.74E,178,18.446,33.1318
804,2020/8/7,13:23,42-09.81N,141-35.75E,179,18.399,33.1296
805,2020/8/7,13:24,42-09.51N,141-35.75E,179,18.363,33.1256
806,2020/8/7,13:25,42-09.22N,141-35.75E,180,18.328,33.133
807,2020/8/7,13:26,42-08.92N,141-35.75E,179,18.256,33.142
808,2020/8/7,13:27,42-08.63N,141-35.76E,178,18.227,33.1486
809,2020/8/7,13:28,42-08.34N,141-35.77E,179,18.191,33.1565
810,2020/8/7,13:29,42-08.04N,141-35.77E,179,18.2,33.1705
811,2020/8/7,13:30,42-07.75N,141-35.78E,179,18.23,33.1807
812,2020/8/7,13:31,42-07.45N,141-35.78E,179,18.254,33.1832
813,2020/8/7,13:32,42-07.16N,141-35.79E,179,18.239,33.1896
814,2020/8/7,13:33,42-06.87N,141-35.79E,179,18.222,33.1908
815,2020/8/7,13:34,42-06.57N,141-35.80E,179,18.224,33.1939
816,2020/8/7,13:35,42-06.28N,141-35.81E,178,18.205,33.199
817,2020/8/7,13:36,42-05.98N,141-35.82E,178,18.179,33.2009
818,2020/8/7,13:37,42-05.68N,141-35.82E,179,18.187,33.2025
819,2020/8/7,13:38,42-05.39N,141-35.83E,179,18.226,33.2037
820,2020/8/7,13:39,42-05.10N,141-35.84E,178,18.259,33.2071
821,2020/8/7,13:40,42-04.81N,141-35.85E,178,18.28,33.2067
822,2020/8/7,13:41,42-04.51N,141-35.86E,178,18.289,33.2082
823,2020/8/7,13:42,42-04.22N,141-35.87E,178,18.31,33.2088
824,2020/8/7,13:43,42-03.93N,141-35.88E,178,18.326,33.2145
825,2020/8/7,13:44,42-03.63N,141-35.89E,179,18.337,33.2235
826,2020/8/7,13:45,42-03.34N,141-35.90E,176,18.327,33.2299
827,2020/8/7,13:46,42-03.04N,141-35.94E,174,18.321,33.2315
828,2020/8/7,13:47,42-02.75N,141-35.98E,174,18.275,33.2309
829,2020/8/7,13:48,42-02.43N,141-36.03E,173,18.224,33.2317
830,2020/8/7,13:49,42-02.13N,141-36.07E,173,18.271,33.2376
831,2020/8/7,13:50,42-01.85N,141-36.12E,173,18.259,33.2399
832,2020/8/7,13:51,42-01.56N,141-36.17E,172,18.211,33.2394
833,2020/8/7,13:52,42-01.28N,141-36.21E,173,18.244,33.2439
834,2020/8/7,13:53,42-00.99N,141-36.25E,173,18.239,33.2516
835,2020/8/7,13:54,42-00.70N,141-36.30E,173,18.242,33.2532
836,2020/8/7,13:55,42-00.42N,141-36.33E,174,18.263,33.2564
837,2020/8/7,13:56,42-00.17N,141-36.35E,177,18.275,33.2627
838,2020/8/7,13:57,41-59.88N,141-36.37E,178,18.218,33.2649
839,2020/8/7,13:58,41-59.60N,141-36.38E,178,18.137,33.2658
840,2020/8/7,13:59,41-59.31N,141-36.39E,178,18.07,33.2761
841,2020/8/7,14:00,41-59.03N,141-36.40E,178,18.073,33.288
842,2020/8/7,14:01,41-58.74N,141-36.40E,179,18.091,33.3034
843,2020/8/7,14:02,41-58.46N,141-36.41E,180,18.102,33.3123
844,2020/8/7,14:03,41-58.18N,141-36.39E,182,18.063,33.3206
845,2020/8/7,14:04,41-57.89N,141-36.37E,183,17.884,33.3267
846,2020/8/7,14:05,41-57.60N,141-36.34E,183,17.589,33.3376
847,2020/8/7,14:06,41-57.32N,141-36.32E,183,17.352,33.3534
848,2020/8/7,14:07,41-57.04N,141-36.29E,183,17.351,33.3667
849,2020/8/7,14:08,41-56.77N,141-36.27E,183,17.369,33.363
850,2020/8/7,14:09,41-56.49N,141-36.25E,183,17.401,33.3572
851,2020/8/7,14:10,41-56.18N,141-36.22E,183,17.374,33.3532
852,2020/8/7,14:11,41-55.92N,141-36.21E,182,17.353,33.3514
853,2020/8/7,14:12,41-55.65N,141-36.19E,183,17.334,33.3533
854,2020/8/7,14:13,41-55.38N,141-36.16E,183,17.287,33.3551
855,2020/8/7,14:14,41-55.09N,141-36.14E,183,17.228,33.3601
856,2020/8/7,14:15,41-54.82N,141-36.11E,184,17.185,33.368
857,2020/8/7,14:16,41-54.50N,141-36.09E,184,17.166,33.3788
858,2020/8/7,14:17,41-54.22N,141-36.06E,183,17.139,33.3864
859,2020/8/7,14:18,41-53.95N,141-36.04E,183,17.115,33.3889
860,2020/8/7,14:19,41-53.67N,141-36.02E,182,17.085,33.3911
861,2020/8/7,14:20,41-53.40N,141-36.01E,183,16.977,33.3914
862,2020/8/7,14:21,41-53.12N,141-35.98E,183,16.936,33.3957
863,2020/8/7,14:22,41-52.89N,141-35.96E,183,16.891,33.4
864,2020/8/7,14:23,41-52.62N,141-35.95E,182,16.842,33.4007
865,2020/8/7,14:24,41-52.35N,141-35.93E,183,16.784,33.4069
866,2020/8/7,14:25,41-52.08N,141-35.91E,182,16.692,33.4088
867,2020/8/7,14:26,41-51.81N,141-35.89E,182,16.635,33.4
868,2020/8/7,14:27,41-51.53N,141-35.87E,182,16.627,33.3941
869,2020/8/7,14:28,41-51.26N,141-35.85E,182,16.58,33.3859
870,2020/8/7,14:29,41-50.95N,141-35.83E,183,16.536,33.38
871,2020/8/7,14:30,41-50.68N,141-35.81E,183,16.517,33.3816
872,2020/8/7,14:31,41-50.41N,141-35.79E,183,16.505,33.3813
873,2020/8/7,14:32,41-50.14N,141-35.78E,182,16.357,33.3824
874,2020/8/7,14:33,41-49.87N,141-35.76E,182,16.355,33.3886
875,2020/8/7,14:34,41-49.60N,141-35.74E,183,16.364,33.4144
876,2020/8/7,14:35,41-49.34N,141-35.72E,184,16.377,33.4267
877,2020/8/7,14:36,41-49.07N,141-35.70E,183,16.403,33.4329
878,2020/8/7,14:37,41-48.79N,141-35.68E,183,16.349,33.4506
879,2020/8/7,14:38,41-48.53N,141-35.68E,181,16.145,33.4731
880,2020/8/7,14:39,41-48.25N,141-35.68E,180,16.061,33.5028
881,2020/8/7,14:40,41-47.98N,141-35.68E,182,16.248,33.4964
882,2020/8/7,14:41,41-47.71N,141-35.66E,182,16.383,33.4488
883,2020/8/7,14:42,41-47.43N,141-35.66E,181,16.542,33.4191
884,2020/8/7,14:43,41-47.17N,141-35.65E,182,16.641,33.4007
885,2020/8/7,14:44,41-46.91N,141-35.64E,180,16.745,33.3779
886,2020/8/7,14:45,41-46.63N,141-35.64E,180,16.869,33.3641
887,2020/8/7,14:46,41-46.36N,141-35.63E,180,16.916,33.3514
888,2020/8/7,14:47,41-46.09N,141-35.62E,181,16.951,33.3331
889,2020/8/7,14:48,41-45.82N,141-35.62E,182,16.982,33.3234
890,2020/8/7,14:49,41-45.58N,141-35.61E,181,16.988,33.3225
891,2020/8/7,14:50,41-45.31N,141-35.60E,181,16.983,33.3179
892,2020/8/7,14:51,41-45.03N,141-35.59E,180,16.934,33.312
893,2020/8/7,14:52,41-44.75N,141-35.59E,181,16.968,33.3151
894,2020/8/7,14:53,41-44.48N,141-35.58E,181,16.995,33.309
895,2020/8/7,14:54,41-44.20N,141-35.56E,181,17.039,33.2981
896,2020/8/7,14:55,41-43.93N,141-35.55E,182,17.177,33.3001
897,2020/8/7,14:56,41-43.66N,141-35.54E,182,17.787,33.3052
898,2020/8/7,14:57,41-43.38N,141-35.52E,182,18.226,33.3678
899,2020/8/7,14:58,41-43.08N,141-35.51E,180,18.618,33.4561
900,2020/8/7,14:59,41-42.81N,141-35.51E,180,18.79,33.5472
901,2020/8/7,15:00,41-42.55N,141-35.50E,181,18.916,33.6812
902,2020/8/7,15:01,41-42.28N,141-35.50E,180,19.027,33.7476
903,2020/8/7,15:02,41-42.05N,141-35.50E,180,19.155,33.7768
904,2020/8/7,15:03,41-41.80N,141-35.49E,180,19.341,33.8048
905,2020/8/7,15:04,41-41.53N,141-35.49E,180,19.614,33.8046
906,2020/8/7,15:05,41-41.28N,141-35.48E,181,19.805,33.7917
907,2020/8/7,15:06,41-41.02N,141-35.47E,181,20.043,33.7652
908,2020/8/7,15:07,41-40.76N,141-35.46E,182,20.203,33.7514
909,2020/8/7,15:08,41-40.50N,141-35.44E,182,20.274,33.739
910,2020/8/7,15:09,41-40.20N,141-35.43E,181,20.153,33.7344
911,2020/8/7,15:10,41-39.94N,141-35.42E,181,20.133,33.7452
912,2020/8/7,15:11,41-39.71N,141-35.41E,182,20.025,33.7782
913,2020/8/7,15:12,41-39.46N,141-35.39E,182,19.899,33.7989
914,2020/8/7,15:13,41-39.20N,141-35.38E,182,19.666,33.8333
915,2020/8/7,15:14,41-38.93N,141-35.36E,182,19.664,33.8567
916,2020/8/7,15:15,41-38.67N,141-35.35E,181,19.51,33.8646
917,2020/8/7,15:16,41-38.41N,141-35.34E,181,19.158,33.8722
918,2020/8/7,15:17,41-38.13N,141-35.35E,175,18.23,33.8814
919,2020/8/7,15:18,41-37.86N,141-35.37E,176,17.432,33.9081
920,2020/8/7,15:19,41-37.57N,141-35.39E,178,17.338,33.9773
921,2020/8/7,15:20,41-37.29N,141-35.39E,179,17.356,33.9872
922,2020/8/7,15:21,41-37.00N,141-35.39E,180,17.346,34.0022
923,2020/8/7,15:22,41-36.72N,141-35.37E,182,18.301,33.9973
924,2020/8/7,15:23,41-36.44N,141-35.36E,179,18.912,33.9967
925,2020/8/7,15:24,41-36.16N,141-35.37E,179,18.683,33.9636
926,2020/8/7,15:25,41-35.88N,141-35.37E,180,19.256,33.9302
927,2020/8/7,15:26,41-35.60N,141-35.36E,180,19.52,33.9338
928,2020/8/7,15:27,41-35.31N,141-35.35E,180,19.402,33.9145
929,2020/8/7,15:28,41-35.03N,141-35.35E,180,19.327,33.9012
930,2020/8/7,15:29,41-34.75N,141-35.34E,181,19.636,33.9058
931,2020/8/7,15:30,41-34.47N,141-35.33E,181,20.022,33.9043
932,2020/8/7,15:31,41-34.19N,141-35.32E,181,20.175,33.8852
933,2020/8/7,15:32,41-33.88N,141-35.31E,181,20.255,33.8595
934,2020/8/7,15:33,41-33.59N,141-35.30E,181,20.308,33.8396
935,2020/8/7,15:34,41-33.31N,141-35.29E,181,20.288,33.8247
936,2020/8/7,15:35,41-33.07N,141-35.28E,181,20.261,33.8139
937,2020/8/7,15:36,41-32.79N,141-35.26E,182,20.309,33.8177
938,2020/8/7,15:37,41-32.50N,141-35.25E,181,20.387,33.8266
939,2020/8/7,15:38,41-32.22N,141-35.23E,182,20.405,33.8162
940,2020/8/7,15:39,41-31.94N,141-35.22E,181,20.382,33.8079
941,2020/8/7,15:40,41-31.65N,141-35.21E,181,20.374,33.8023
942,2020/8/7,15:41,41-31.37N,141-35.20E,181,20.408,33.8
943,2020/8/7,15:42,41-31.08N,141-35.19E,181,20.4,33.7959
944,2020/8/7,15:43,41-30.80N,141-35.18E,181,20.381,33.7951
945,2020/8/7,15:44,41-30.51N,141-35.17E,181,20.339,33.7851
946,2020/8/7,15:45,41-30.23N,141-35.16E,180,20.368,33.7743
947,2020/8/7,15:46,41-29.94N,141-35.15E,181,20.379,33.7648
948,2020/8/7,15:47,41-29.65N,141-35.14E,181,20.397,33.7565
949,2020/8/7,15:48,41-29.36N,141-35.13E,181,20.419,33.7469
950,2020/8/7,15:49,41-29.07N,141-35.12E,181,20.427,33.739
951,2020/8/7,15:50,41-28.78N,141-35.11E,181,20.453,33.7333
952,2020/8/7,15:51,41-28.49N,141-35.10E,182,20.485,33.7311
953,2020/8/7,15:52,41-28.19N,141-35.08E,182,20.502,33.7299
954,2020/8/7,15:53,41-27.91N,141-35.07E,181,20.504,33.7248
955,2020/8/7,15:54,41-27.62N,141-35.07E,179,20.511,33.7237
956,2020/8/7,15:55,41-27.33N,141-35.08E,178,20.519,33.7243
957,2020/8/7,15:56,41-27.04N,141-35.09E,178,20.499,33.7228
958,2020/8/7,15:57,41-26.74N,141-35.10E,178,20.543,33.7205
959,2020/8/7,15:58,41-26.41N,141-35.12E,178,20.602,33.7225
960,2020/8/7,15:59,41-26.12N,141-35.12E,179,20.669,33.7139
961,2020/8/7,16:00,41-25.83N,141-35.13E,178,20.741,33.7055
962,2020/8/7,16:01,41-25.54N,141-35.14E,178,20.841,33.6968
963,2020/8/7,16:02,41-25.28N,141-35.15E,178,20.887,33.6859
964,2020/8/7,16:03,41-24.95N,141-35.16E,178,20.895,33.6707
965,2020/8/7,16:04,41-24.69N,141-35.17E,178,20.887,33.6559
966,2020/8/7,16:05,41-24.37N,141-35.18E,177,20.864,33.6475
967,2020/8/7,16:06,41-24.07N,141-35.21E,176,20.868,33.6448
968,2020/8/7,16:07,41-23.81N,141-35.23E,176,20.91,33.6434
969,2020/8/7,16:08,41-23.52N,141-35.25E,176,20.903,33.6373
970,2020/8/7,16:09,41-23.22N,141-35.27E,176,20.867,33.6284
971,2020/8/7,16:10,41-22.92N,141-35.30E,177,20.84,33.6247
972,2020/8/7,16:11,41-22.62N,141-35.31E,177,20.811,33.6245
973,2020/8/7,16:12,41-22.32N,141-35.33E,177,20.776,33.6245
974,2020/8/7,16:13,41-22.02N,141-35.35E,178,20.781,33.6274
975,2020/8/7,16:14,41-21.72N,141-35.36E,178,20.784,33.6297
976,2020/8/7,16:15,41-21.38N,141-35.37E,178,20.759,33.6284
977,2020/8/7,16:16,41-21.06N,141-35.38E,178,20.755,33.6254
978,2020/8/7,16:17,41-20.75N,141-35.39E,177,20.769,33.6274
979,2020/8/7,16:18,41-20.45N,141-35.41E,177,20.71,33.6257
980,2020/8/7,16:19,41-20.18N,141-35.43E,177,20.629,33.6278
981,2020/8/7,16:20,41-19.87N,141-35.44E,177,20.636,33.6363
982,2020/8/7,16:21,41-19.56N,141-35.46E,177,20.605,33.6407
983,2020/8/7,16:22,41-19.24N,141-35.48E,177,20.684,33.6437
984,2020/8/7,16:23,41-18.91N,141-35.50E,177,20.732,33.6428
985,2020/8/7,16:24,41-18.57N,141-35.52E,177,20.766,33.6398
986,2020/8/7,16:25,41-18.25N,141-35.53E,177,20.757,33.6361
987,2020/8/7,16:26,41-17.93N,141-35.55E,177,20.732,33.6295
988,2020/8/7,16:27,41-17.60N,141-35.56E,178,20.816,33.6219
989,2020/8/7,16:28,41-17.28N,141-35.57E,177,20.86,33.6146
990,2020/8/7,16:29,41-16.96N,141-35.59E,177,20.847,33.6054
991,2020/8/7,16:30,41-16.63N,141-35.60E,178,20.781,33.5987
992,2020/8/7,16:31,41-16.31N,141-35.61E,178,20.811,33.597
993,2020/8/7,16:32,41-15.98N,141-35.62E,178,20.847,33.5954
994,2020/8/7,16:33,41-15.66N,141-35.63E,178,20.879,33.5903
995,2020/8/7,16:34,41-15.38N,141-35.64E,178,20.918,33.5839
996,2020/8/7,16:35,41-15.05N,141-35.64E,179,20.946,33.5775
997,2020/8/7,16:36,41-14.73N,141-35.65E,178,20.958,33.5695
998,2020/8/7,16:37,41-14.40N,141-35.67E,177,20.964,33.563
999,2020/8/7,16:38,41-14.07N,141-35.68E,177,20.945,33.5585
1000,2020/8/7,16:39,41-13.74N,141-35.70E,177,20.869,33.5561
1001,2020/8/7,16:40,41-13.41N,141-35.72E,177,20.787,33.5532
1002,2020/8/7,16:41,41-13.09N,141-35.74E,175,20.577,33.551
1003,2020/8/7,16:42,41-12.77N,141-35.78E,173,20.321,33.5471
1004,2020/8/7,16:43,41-12.46N,141-35.82E,175,20.313,33.5278
1005,2020/8/7,16:44,41-12.15N,141-35.85E,175,20.352,33.4963
1006,2020/8/7,16:45,41-11.84N,141-35.88E,175,20.392,33.4571
1007,2020/8/7,16:46,41-11.54N,141-35.91E,175,20.426,33.4316
1008,2020/8/7,16:47,41-11.24N,141-35.95E,174,20.475,33.4047
1009,2020/8/7,16:48,41-10.94N,141-35.98E,174,20.522,33.3848
1010,2020/8/7,16:49,41-10.63N,141-36.02E,174,20.551,33.3646
1011,2020/8/7,16:50,41-10.32N,141-36.06E,174,20.551,33.3466
1012,2020/8/7,16:51,41-09.98N,141-36.10E,174,20.465,33.3353
1013,2020/8/7,16:52,41-09.68N,141-36.14E,174,20.332,33.332
1014,2020/8/7,16:53,41-09.38N,141-36.18E,174,20.23,33.3608
1015,2020/8/7,16:54,41-09.09N,141-36.23E,173,20.123,33.3876
1016,2020/8/7,16:55,41-08.79N,141-36.27E,173,20.096,33.4318
1017,2020/8/7,16:56,41-08.50N,141-36.31E,173,20.07,33.4493
1018,2020/8/7,16:57,41-08.20N,141-36.36E,173,20.034,33.4746
1019,2020/8/7,16:58,41-07.91N,141-36.40E,173,20.057,33.4841
1020,2020/8/7,16:59,41-07.61N,141-36.45E,173,20.058,33.4812
1021,2020/8/7,17:00,41-07.31N,141-36.49E,173,20.032,33.4758
1022,2020/8/7,17:01,41-07.02N,141-36.54E,172,19.959,33.47
1023,2020/8/7,17:02,41-06.72N,141-36.59E,173,20.003,33.4744
1024,2020/8/7,17:03,41-06.47N,141-36.63E,172,20.038,33.483
1025,2020/8/7,17:04,41-06.18N,141-36.67E,173,20.07,33.4799
1026,2020/8/7,17:05,41-05.88N,141-36.72E,172,20.053,33.4753
1027,2020/8/7,17:06,41-05.59N,141-36.77E,172,19.993,33.4751
1028,2020/8/7,17:07,41-05.28N,141-36.82E,172,20.012,33.4818
1029,2020/8/7,17:08,41-04.98N,141-36.87E,172,20.139,33.4977
1030,2020/8/7,17:09,41-04.68N,141-36.92E,172,20.206,33.5296
1031,2020/8/7,17:10,41-04.38N,141-36.97E,172,20.295,33.5755
1032,2020/8/7,17:11,41-04.08N,141-37.02E,172,20.37,33.6026
1033,2020/8/7,17:12,41-03.78N,141-37.07E,172,20.417,33.628
1034,2020/8/7,17:13,41-03.48N,141-37.13E,172,20.439,33.6482
1035,2020/8/7,17:14,41-03.18N,141-37.18E,172,20.445,33.664
1036,2020/8/7,17:15,41-02.88N,141-37.24E,171,20.421,33.6701
1037,2020/8/7,17:16,41-02.58N,141-37.29E,171,20.362,33.6744
1038,2020/8/7,17:17,41-02.27N,141-37.36E,170,20.295,33.6787
1039,2020/8/7,17:18,41-01.97N,141-37.42E,170,20.305,33.6835
1040,2020/8/7,17:19,41-01.67N,141-37.49E,171,20.346,33.6848
1041,2020/8/7,17:20,41-01.36N,141-37.55E,171,20.392,33.6843
1042,2020/8/7,17:21,41-01.07N,141-37.61E,171,20.421,33.685
1043,2020/8/7,17:22,41-00.76N,141-37.67E,170,20.452,33.6836
1044,2020/8/7,17:23,41-00.45N,141-37.74E,171,20.486,33.6823
1045,2020/8/7,17:24,41-00.15N,141-37.80E,170,20.536,33.68
1046,2020/8/7,17:25,40-59.84N,141-37.87E,170,20.575,33.6786
1047,2020/8/7,17:26,40-59.54N,141-37.93E,170,20.616,33.6762
1048,2020/8/7,17:27,40-59.23N,141-38.00E,170,20.643,33.6753
1049,2020/8/7,17:28,40-58.93N,141-38.06E,170,20.651,33.676
1050,2020/8/7,17:29,40-58.62N,141-38.12E,171,20.631,33.6763
1051,2020/8/7,17:30,40-58.30N,141-38.19E,171,20.629,33.6811
1052,2020/8/7,17:31,40-58.00N,141-38.25E,170,20.644,33.6989
1053,2020/8/7,17:32,40-57.69N,141-38.32E,170,20.675,33.7124
1054,2020/8/7,17:33,40-57.38N,141-38.39E,170,20.692,33.7212
1055,2020/8/7,17:34,40-57.07N,141-38.46E,170,20.704,33.7279
1056,2020/8/7,17:35,40-56.75N,141-38.53E,170,20.721,33.7293
1057,2020/8/7,17:36,40-56.45N,141-38.60E,170,20.734,33.7265
1058,2020/8/7,17:37,40-56.13N,141-38.67E,170,20.766,33.716
1059,2020/8/7,17:38,40-55.82N,141-38.74E,170,20.784,33.7021
1060,2020/8/7,17:39,40-55.51N,141-38.81E,170,20.787,33.6867
1061,2020/8/7,17:40,40-55.19N,141-38.88E,170,20.791,33.6804
1062,2020/8/7,17:41,40-54.88N,141-38.94E,170,20.808,33.6809
1063,2020/8/7,17:42,40-54.57N,141-39.01E,170,20.796,33.679
1064,2020/8/7,17:43,40-54.26N,141-39.08E,170,20.755,33.6785
1065,2020/8/7,17:44,40-53.93N,141-39.15E,170,20.658,33.6897
1066,2020/8/7,17:45,40-53.60N,141-39.29E,160,20.619,33.6886
1067,2020/8/7,17:46,40-53.34N,141-39.42E,158,20.602,33.6798
1068,2020/8/7,17:47,40-53.05N,141-39.57E,157,20.591,33.6789
1069,2020/8/7,17:48,40-52.76N,141-39.73E,157,20.583,33.6785
1070,2020/8/7,17:49,40-52.46N,141-39.89E,158,20.581,33.6803
1071,2020/8/7,17:50,40-52.16N,141-40.04E,158,20.571,33.6809
1072,2020/8/7,17:51,40-51.86N,141-40.20E,158,20.562,33.6828
1073,2020/8/7,17:52,40-51.56N,141-40.35E,159,20.558,33.6829
1074,2020/8/7,17:53,40-51.25N,141-40.50E,159,20.551,33.6859
1075,2020/8/7,17:54,40-50.91N,141-40.67E,159,20.549,33.6865
1076,2020/8/7,17:55,40-50.60N,141-40.83E,158,20.541,33.6895
1077,2020/8/7,17:56,40-50.30N,141-40.98E,158,20.535,33.6916
1078,2020/8/7,17:57,40-49.99N,141-41.14E,158,20.54,33.6928
1079,2020/8/7,17:58,40-49.69N,141-41.29E,159,20.542,33.6915
1080,2020/8/7,17:59,40-49.39N,141-41.44E,159,20.54,33.6891
1081,2020/8/7,18:00,40-49.08N,141-41.59E,158,20.526,33.6893
1082,2020/8/7,18:01,40-48.82N,141-41.72E,158,20.519,33.6906
1083,2020/8/7,18:02,40-48.53N,141-41.87E,158,20.517,33.6921
1084,2020/8/7,18:03,40-48.22N,141-42.02E,158,20.517,33.6917
1085,2020/8/7,18:04,40-47.92N,141-42.17E,158,20.527,33.6917
1086,2020/8/7,18:05,40-47.61N,141-42.33E,159,20.533,33.6883
1087,2020/8/7,18:06,40-47.28N,141-42.50E,159,20.541,33.6851
1088,2020/8/7,18:07,40-46.98N,141-42.65E,159,20.54,33.6795
1089,2020/8/7,18:08,40-46.69N,141-42.79E,158,20.549,33.6768
1090,2020/8/7,18:09,40-46.43N,141-42.93E,158,20.541,33.6757
1091,2020/8/7,18:10,40-46.13N,141-43.08E,158,20.527,33.6722
1092,2020/8/7,18:11,40-45.83N,141-43.23E,160,20.538,33.677
1093,2020/8/7,18:12,40-45.53N,141-43.36E,162,20.532,33.6772
1094,2020/8/7,18:13,40-45.19N,141-43.50E,162,20.505,33.6719
1095,2020/8/7,18:14,40-44.88N,141-43.63E,162,20.488,33.6712
1096,2020/8/7,18:15,40-44.57N,141-43.75E,163,20.487,33.674
1097,2020/8/7,18:16,40-44.31N,141-43.84E,163,20.499,33.6856
1098,2020/8/7,18:17,40-44.01N,141-43.95E,163,20.516,33.6899
1099,2020/8/7,18:18,40-43.67N,141-44.08E,164,20.526,33.6916
1100,2020/8/7,18:19,40-43.37N,141-44.18E,166,20.525,33.6914
1101,2020/8/7,18:20,40-43.05N,141-44.28E,167,20.531,33.6898
1102,2020/8/7,18:21,40-42.76N,141-44.36E,167,20.535,33.6851
1103,2020/8/7,18:22,40-42.45N,141-44.45E,167,20.585,33.6821
1104,2020/8/7,18:23,40-42.14N,141-44.53E,168,20.62,33.6678
1105,2020/8/7,18:24,40-41.85N,141-44.61E,168,20.667,33.6469
1106,2020/8/7,18:25,40-41.54N,141-44.70E,168,20.657,33.6397
1107,2020/8/7,18:26,40-41.24N,141-44.78E,169,20.672,33.6336